TimeEST,TemperatureF,Dew PointF,Humidity,Sea Level PressureIn,VisibilityMPH,Wind Direction,Wind SpeedMPH,Gust SpeedMPH,PrecipitationIn,Events,Conditions,WindDirDegrees,DateUTC
12:15 AM,28.4,23.0,80,29.92,10.0,North,3.5,-,N/A,,Clear,0,2012-11-07 05:15:00
12:35 AM,26.6,21.2,80,29.91,10.0,Calm,Calm,-,N/A,,Clear,0,2012-11-07 05:35:00
12:55 AM,26.6,23.0,86,29.92,10.0,Calm,Calm,-,N/A,,Clear,0,2012-11-07 05:55:00
1:15 AM,26.6,21.2,80,29.91,10.0,Calm,Calm,-,N/A,,Clear,0,2012-11-07 06:15:00
1:35 AM,26.6,23.0,86,29.91,10.0,Calm,Calm,-,N/A,,Clear,0,2012-11-07 06:35:00
1:55 AM,24.8,21.2,86,29.91,7.0,Calm,Calm,-,N/A,,Clear,0,2012-11-07 06:55:00
2:15 AM,26.6,23.0,86,29.91,7.0,Calm,Calm,-,N/A,,Clear,0,2012-11-07 07:15:00
2:35 AM,23.0,21.2,93,29.90,7.0,Calm,Calm,-,N/A,,Clear,0,2012-11-07 07:35:00
2:55 AM,23.0,21.2,93,29.89,7.0,Calm,Calm,-,N/A,,Clear,0,2012-11-07 07:55:00
3:15 AM,23.0,21.2,93,29.89,7.0,Calm,Calm,-,N/A,,Clear,0,2012-11-07 08:15:00
3:55 AM,23.0,21.2,93,29.88,7.0,Calm,Calm,-,N/A,,Clear,0,2012-11-07 08:55:00
4:15 AM,23.0,21.2,93,29.88,7.0,NNE,3.5,-,N/A,,Clear,30,2012-11-07 09:15:00
4:35 AM,23.0,21.2,93,29.88,7.0,Calm,Calm,-,N/A,,Clear,0,2012-11-07 09:35:00
4:55 AM,23.0,21.2,93,29.88,7.0,Calm,Calm,-,N/A,,Clear,0,2012-11-07 09:55:00
5:35 AM,21.2,19.4,93,29.88,5.0,Calm,Calm,-,N/A,,Clear,0,2012-11-07 10:35:00
5:55 AM,21.2,19.4,93,29.88,5.0,Calm,Calm,-,N/A,,Clear,0,2012-11-07 10:55:00
6:15 AM,23.0,21.2,93,29.87,7.0,Calm,Calm,-,N/A,,Clear,0,2012-11-07 11:15:00
6:35 AM,23.0,21.2,93,29.88,7.0,Calm,Calm,-,N/A,,Scattered Clouds,0,2012-11-07 11:35:00
6:55 AM,23.0,21.2,93,29.88,7.0,Calm,Calm,-,N/A,,Scattered Clouds,0,2012-11-07 11:55:00
7:15 AM,21.2,19.4,93,29.88,5.0,Calm,Calm,-,N/A,,Clear,0,2012-11-07 12:15:00
7:35 AM,21.2,19.4,93,29.89,5.0,Calm,Calm,-,N/A,,Clear,0,2012-11-07 12:35:00
7:55 AM,21.2,19.4,93,29.89,5.0,Calm,Calm,-,N/A,,Clear,0,2012-11-07 12:55:00
8:15 AM,21.2,21.2,100,29.90,4.0,Calm,Calm,-,N/A,,Clear,0,2012-11-07 13:15:00
8:35 AM,23.0,23.0,100,29.90,4.0,Calm,Calm,-,N/A,,Scattered Clouds,0,2012-11-07 13:35:00
8:55 AM,26.6,23.0,86,29.90,5.0,Calm,Calm,-,N/A,,Mostly Cloudy,0,2012-11-07 13:55:00
9:15 AM,26.6,24.8,93,29.90,5.0,Calm,Calm,-,N/A,,Mostly Cloudy,0,2012-11-07 14:15:00
9:35 AM,28.4,26.6,93,29.90,5.0,Calm,Calm,-,N/A,,Mostly Cloudy,0,2012-11-07 14:35:00
9:55 AM,28.4,26.6,93,29.89,7.0,Calm,Calm,-,N/A,,Scattered Clouds,0,2012-11-07 14:55:00
10:15 AM,30.2,26.6,86,29.89,7.0,Calm,Calm,-,N/A,,Mostly Cloudy,0,2012-11-07 15:15:00
10:35 AM,32.0,26.6,80,29.89,10.0,Calm,Calm,-,N/A,,Mostly Cloudy,0,2012-11-07 15:35:00
10:55 AM,32.0,26.6,80,29.88,10.0,Calm,Calm,-,N/A,,Overcast,0,2012-11-07 15:55:00
11:15 AM,32.0,26.6,80,29.88,10.0,South,3.5,-,N/A,,Overcast,190,2012-11-07 16:15:00
11:35 AM,33.8,26.6,75,29.87,10.0,Calm,Calm,-,N/A,,Overcast,0,2012-11-07 16:35:00
11:55 AM,33.8,26.6,75,29.86,10.0,Calm,Calm,-,N/A,,Overcast,0,2012-11-07 16:55:00
12:15 PM,35.6,26.6,70,29.86,10.0,Calm,Calm,-,N/A,,Overcast,0,2012-11-07 17:15:00
12:35 PM,35.6,28.4,75,29.86,10.0,Calm,Calm,-,N/A,,Overcast,0,2012-11-07 17:35:00
12:55 PM,37.4,28.4,70,29.84,10.0,Calm,Calm,-,N/A,,Overcast,0,2012-11-07 17:55:00
1:15 PM,37.4,28.4,70,29.84,10.0,Calm,Calm,-,N/A,,Overcast,0,2012-11-07 18:15:00
1:35 PM,37.4,28.4,70,29.84,10.0,Calm,Calm,-,N/A,,Overcast,0,2012-11-07 18:35:00
1:55 PM,37.4,28.4,70,29.84,10.0,Calm,Calm,-,N/A,,Overcast,0,2012-11-07 18:55:00
2:15 PM,39.2,28.4,65,29.85,10.0,Calm,Calm,-,N/A,,Overcast,0,2012-11-07 19:15:00
2:35 PM,39.2,28.4,65,29.84,10.0,Calm,Calm,-,N/A,,Overcast,0,2012-11-07 19:35:00
2:55 PM,41.0,28.4,61,29.84,10.0,Calm,Calm,-,N/A,,Overcast,0,2012-11-07 19:55:00
3:15 PM,41.0,28.4,61,29.85,10.0,NE,3.5,-,N/A,,Overcast,40,2012-11-07 20:15:00
3:35 PM,41.0,24.8,53,29.86,10.0,North,6.9,-,N/A,,Overcast,350,2012-11-07 20:35:00
3:55 PM,41.0,24.8,53,29.85,10.0,Calm,Calm,-,N/A,,Overcast,0,2012-11-07 20:55:00
4:15 PM,41.0,23.0,49,29.86,10.0,NW,5.8,-,N/A,,Overcast,320,2012-11-07 21:15:00
4:35 PM,41.0,23.0,49,29.87,10.0,North,5.8,-,N/A,,Overcast,350,2012-11-07 21:35:00
4:55 PM,39.2,23.0,52,29.87,10.0,NNW,4.6,-,N/A,,Scattered Clouds,330,2012-11-07 21:55:00
5:15 PM,37.4,23.0,56,29.88,10.0,Calm,Calm,-,N/A,,Scattered Clouds,0,2012-11-07 22:15:00
5:35 PM,37.4,23.0,56,29.88,10.0,Calm,Calm,-,N/A,,Mostly Cloudy,0,2012-11-07 22:35:00
5:55 PM,37.4,21.2,52,29.89,10.0,NNW,3.5,-,N/A,,Mostly Cloudy,340,2012-11-07 22:55:00
6:15 PM,37.4,23.0,56,29.90,10.0,Calm,Calm,-,N/A,,Mostly Cloudy,0,2012-11-07 23:15:00
6:35 PM,35.6,23.0,60,29.91,10.0,NNE,3.5,-,N/A,,Overcast,20,2012-11-07 23:35:00
6:55 PM,33.8,23.0,65,29.92,10.0,NNE,3.5,-,N/A,,Scattered Clouds,20,2012-11-07 23:55:00
7:15 PM,35.6,21.2,56,29.92,10.0,NNE,9.2,-,N/A,,Clear,20,2012-11-08 00:15:00
7:35 PM,35.6,19.4,52,29.92,10.0,North,10.4,-,N/A,,Clear,10,2012-11-08 00:35:00
7:55 PM,35.6,21.2,56,29.93,10.0,NNE,5.8,-,N/A,,Scattered Clouds,20,2012-11-08 00:55:00
8:15 PM,33.8,21.2,60,29.93,10.0,North,3.5,-,N/A,,Mostly Cloudy,10,2012-11-08 01:15:00
8:35 PM,33.8,21.2,60,29.94,10.0,Calm,Calm,-,N/A,,Scattered Clouds,0,2012-11-08 01:35:00
8:55 PM,32.0,21.2,64,29.95,10.0,Calm,Calm,-,N/A,,Mostly Cloudy,0,2012-11-08 01:55:00
9:15 PM,32.0,21.2,64,29.95,10.0,Calm,Calm,-,N/A,,Overcast,0,2012-11-08 02:15:00
9:35 PM,30.2,21.2,69,29.96,10.0,SSW,3.5,-,N/A,,Mostly Cloudy,210,2012-11-08 02:35:00
9:55 PM,32.0,21.2,64,29.96,10.0,Calm,Calm,-,N/A,,Overcast,0,2012-11-08 02:55:00
10:15 PM,30.2,23.0,75,29.96,10.0,Calm,Calm,-,N/A,,Overcast,0,2012-11-08 03:15:00
10:35 PM,30.2,23.0,75,29.96,10.0,Calm,Calm,-,N/A,,Scattered Clouds,0,2012-11-08 03:35:00
10:55 PM,32.0,23.0,69,29.96,10.0,Calm,Calm,-,N/A,,Scattered Clouds,0,2012-11-08 03:55:00
11:15 PM,32.0,23.0,69,29.96,10.0,Calm,Calm,-,N/A,,Scattered Clouds,0,2012-11-08 04:15:00
11:35 PM,30.2,23.0,75,29.96,10.0,Calm,Calm,-,N/A,,Clear,0,2012-11-08 04:35:00
11:55 PM,30.2,23.0,75,29.96,10.0,WSW,3.5,-,N/A,,Scattered Clouds,250,2012-11-08 04:55:00